Time,TemperatureF,DewpointF,PressureIn,WindDirection,WindDirectionDegrees,WindSpeedMPH,WindSpeedGustMPH,Humidity,HourlyPrecipIn,Conditions,Clouds,dailyrainin,SoftwareType,DateUTC
2013-09-07 00:04:00,74.7,64.0,29.89,NNW,347,1.2,3.7,68,0.00,,,0.00,TxWx,2013-09-07 05:04:00,
2013-09-07 00:09:00,74.7,64.0,29.89,West,280,0.6,3.1,68,0.00,,,0.00,TxWx,2013-09-07 05:09:00,
2013-09-07 00:14:00,74.6,64.0,29.90,SSW,212,1.2,1.2,68,0.00,,,0.00,TxWx,2013-09-07 05:14:00,
2013-09-07 00:19:00,74.6,64.0,29.90,WNW,302,0.6,1.2,68,0.00,,,0.00,TxWx,2013-09-07 05:19:00,
2013-09-07 00:24:00,74.5,64.0,29.90,WSW,257,0.6,3.7,68,0.00,,,0.00,TxWx,2013-09-07 05:24:00,
2013-09-07 00:29:00,74.4,63.0,29.90,SSW,212,0.6,3.1,69,0.00,,,0.00,TxWx,2013-09-07 05:29:00,
2013-09-07 00:34:00,74.3,63.0,29.90,NE,55,0.0,1.2,68,0.00,,,0.00,TxWx,2013-09-07 05:34:00,
2013-09-07 00:39:00,74.2,63.0,29.90,NNW,347,2.5,3.1,69,0.00,,,0.00,TxWx,2013-09-07 05:39:00,
2013-09-07 00:44:00,74.1,63.0,29.90,WSW,257,1.9,3.1,69,0.00,,,0.00,TxWx,2013-09-07 05:44:00,
2013-09-07 00:49:00,74.0,63.0,29.89,NNW,347,1.9,2.5,69,0.00,,,0.00,TxWx,2013-09-07 05:49:00,
2013-09-07 00:54:00,73.9,63.0,29.89,South,190,1.9,2.5,69,0.00,,,0.00,TxWx,2013-09-07 05:54:00,
2013-09-07 00:59:00,73.8,63.0,29.89,North,10,0.0,1.2,70,0.00,,,0.00,TxWx,2013-09-07 05:59:00,
2013-09-07 01:04:00,73.7,64.0,29.89,NNW,347,0.6,2.5,70,0.00,,,0.00,TxWx,2013-09-07 06:04:00,
2013-09-07 01:09:00,73.6,64.0,29.89,WNW,302,1.2,1.9,70,0.00,,,0.00,TxWx,2013-09-07 06:09:00,
2013-09-07 01:14:00,73.5,64.0,29.89,North,10,0.0,0.6,70,0.00,,,0.00,TxWx,2013-09-07 06:14:00,
2013-09-07 01:19:00,73.4,63.0,29.89,West,280,1.2,1.9,70,0.00,,,0.00,TxWx,2013-09-07 06:19:00,
2013-09-07 01:24:00,73.3,63.0,29.89,SE,145,1.2,5.6,71,0.00,,,0.00,TxWx,2013-09-07 06:24:00,
2013-09-07 01:29:00,73.2,63.0,29.89,NW,325,0.6,2.5,71,0.00,,,0.00,TxWx,2013-09-07 06:29:00,
2013-09-07 01:34:00,73.1,63.0,29.89,NW,325,0.6,1.2,71,0.00,,,0.00,TxWx,2013-09-07 06:34:00,
2013-09-07 01:39:00,73.0,63.0,29.89,SSE,167,0.0,1.2,72,0.00,,,0.00,TxWx,2013-09-07 06:39:00,
2013-09-07 01:44:00,72.9,63.0,29.89,WSW,257,1.2,1.2,72,0.00,,,0.00,TxWx,2013-09-07 06:44:00,
2013-09-07 01:49:00,72.8,63.0,29.89,SW,235,0.6,2.5,72,0.00,,,0.00,TxWx,2013-09-07 06:49:00,
2013-09-07 01:54:00,72.7,63.0,29.89,SE,145,0.6,1.2,72,0.00,,,0.00,TxWx,2013-09-07 06:54:00,
2013-09-07 02:00:00,72.6,64.0,29.89,WNW,302,0.6,2.5,73,0.00,,,0.00,TxWx,2013-09-07 07:00:00,
2013-09-07 02:05:00,72.4,63.0,29.89,WNW,302,0.6,0.6,73,0.00,,,0.00,TxWx,2013-09-07 07:05:00,
2013-09-07 02:10:00,72.3,63.0,29.89,NNW,347,0.6,1.2,73,0.00,,,0.00,TxWx,2013-09-07 07:10:00,
2013-09-07 02:15:00,72.1,63.0,29.89,West,280,1.2,1.2,74,0.00,,,0.00,TxWx,2013-09-07 07:15:00,
2013-09-07 02:20:00,71.8,64.0,29.89,West,280,1.2,1.9,75,0.00,,,0.00,TxWx,2013-09-07 07:20:00,
2013-09-07 02:25:00,71.6,64.0,29.89,East,100,0.0,0.6,76,0.00,,,0.00,TxWx,2013-09-07 07:25:00,
2013-09-07 02:30:00,71.5,63.0,29.89,WNW,302,0.6,1.9,76,0.00,,,0.00,TxWx,2013-09-07 07:30:00,
2013-09-07 02:35:00,71.4,63.0,29.89,NNE,32,1.2,1.2,76,0.00,,,0.00,TxWx,2013-09-07 07:35:00,
2013-09-07 02:40:00,71.4,63.0,29.88,ESE,122,0.6,1.2,76,0.00,,,0.00,TxWx,2013-09-07 07:40:00,
2013-09-07 02:45:00,71.3,63.0,29.88,NNE,32,1.2,1.9,76,0.00,,,0.00,TxWx,2013-09-07 07:45:00,
2013-09-07 02:50:00,71.2,63.0,29.88,NNW,347,0.6,1.9,77,0.00,,,0.00,TxWx,2013-09-07 07:50:00,
2013-09-07 02:55:00,71.1,63.0,29.88,South,190,1.2,1.9,77,0.00,,,0.00,TxWx,2013-09-07 07:55:00,
2013-09-07 03:00:00,71.0,63.0,29.88,West,280,1.9,3.1,77,0.00,,,0.00,TxWx,2013-09-07 08:00:00,
2013-09-07 03:05:00,70.8,64.0,29.88,WSW,257,1.2,1.9,78,0.00,,,0.00,TxWx,2013-09-07 08:05:00,
2013-09-07 03:10:00,70.7,64.0,29.88,NNE,32,0.6,1.2,78,0.00,,,0.00,TxWx,2013-09-07 08:10:00,
2013-09-07 03:15:00,70.6,64.0,29.88,WSW,257,1.2,1.9,79,0.00,,,0.00,TxWx,2013-09-07 08:15:00,
2013-09-07 03:20:00,70.5,63.0,29.88,SW,235,0.6,2.5,79,0.00,,,0.00,TxWx,2013-09-07 08:20:00,
2013-09-07 03:25:00,70.5,63.0,29.87,NNE,32,0.6,1.9,80,0.00,,,0.00,TxWx,2013-09-07 08:25:00,
2013-09-07 03:30:00,70.5,64.0,29.88,WNW,302,0.6,1.2,79,0.00,,,0.00,TxWx,2013-09-07 08:30:00,
2013-09-07 03:35:00,70.6,64.0,29.88,NNW,347,0.6,2.5,80,0.00,,,0.00,TxWx,2013-09-07 08:35:00,
2013-09-07 03:40:00,70.7,64.0,29.88,West,280,0.6,1.9,79,0.00,,,0.00,TxWx,2013-09-07 08:40:00,
2013-09-07 03:45:00,70.7,64.0,29.88,East,100,1.2,1.2,79,0.00,,,0.00,TxWx,2013-09-07 08:45:00,
2013-09-07 03:50:00,70.8,64.0,29.88,NNW,347,0.0,0.6,79,0.00,,,0.00,TxWx,2013-09-07 08:50:00,
2013-09-07 03:56:00,70.7,64.0,29.87,North,10,0.0,0.6,80,0.00,,,0.00,TxWx,2013-09-07 08:56:00,
2013-09-07 04:01:00,70.6,64.0,29.88,WSW,257,0.6,1.9,80,0.00,,,0.00,TxWx,2013-09-07 09:01:00,
2013-09-07 04:06:00,70.6,64.0,29.88,South,190,0.6,1.2,80,0.00,,,0.00,TxWx,2013-09-07 09:06:00,
2013-09-07 04:11:00,70.6,64.0,29.87,WSW,257,1.2,2.5,80,0.00,,,0.00,TxWx,2013-09-07 09:11:00,
2013-09-07 04:16:00,70.5,64.0,29.88,West,280,0.6,1.9,80,0.00,,,0.00,TxWx,2013-09-07 09:16:00,
2013-09-07 04:21:00,70.4,64.0,29.88,SW,235,1.2,3.1,81,0.00,,,0.00,TxWx,2013-09-07 09:21:00,
2013-09-07 04:26:00,70.3,64.0,29.87,SW,235,0.6,1.9,81,0.00,,,0.00,TxWx,2013-09-07 09:26:00,
2013-09-07 04:31:00,70.3,64.0,29.87,WNW,302,0.6,1.2,81,0.00,,,0.00,TxWx,2013-09-07 09:31:00,
2013-09-07 04:36:00,70.2,64.0,29.87,WNW,302,0.6,1.2,81,0.00,,,0.00,TxWx,2013-09-07 09:36:00,
2013-09-07 04:41:00,70.2,64.0,29.87,ENE,77,0.6,1.2,81,0.00,,,0.00,TxWx,2013-09-07 09:41:00,
2013-09-07 04:46:00,70.1,64.0,29.88,NNW,347,0.0,1.2,81,0.00,,,0.00,TxWx,2013-09-07 09:46:00,
2013-09-07 04:51:00,70.1,64.0,29.88,East,100,0.0,1.9,81,0.00,,,0.00,TxWx,2013-09-07 09:51:00,
2013-09-07 04:56:00,70.1,64.0,29.87,SE,145,0.6,1.2,81,0.00,,,0.00,TxWx,2013-09-07 09:56:00,
2013-09-07 05:01:00,70.0,64.0,29.87,West,280,0.6,1.9,81,0.00,,,0.00,TxWx,2013-09-07 10:01:00,
2013-09-07 05:06:00,69.9,64.0,29.87,East,100,0.0,0.6,82,0.00,,,0.00,TxWx,2013-09-07 10:06:00,
2013-09-07 05:11:00,69.9,64.0,29.87,NNE,32,0.0,0.6,82,0.00,,,0.00,TxWx,2013-09-07 10:11:00,
2013-09-07 05:16:00,69.8,64.0,29.87,NE,55,0.0,1.2,82,0.00,,,0.00,TxWx,2013-09-07 10:16:00,
2013-09-07 05:21:00,69.8,64.0,29.87,NNW,347,0.6,0.6,82,0.00,,,0.00,TxWx,2013-09-07 10:21:00,
2013-09-07 05:26:00,69.7,64.0,29.87,North,10,0.6,1.2,82,0.00,,,0.00,TxWx,2013-09-07 10:26:00,
2013-09-07 05:31:00,69.7,64.0,29.87,East,100,1.2,1.9,83,0.00,,,0.00,TxWx,2013-09-07 10:31:00,
2013-09-07 05:36:00,69.7,64.0,29.87,NNW,347,1.9,1.9,83,0.00,,,0.00,TxWx,2013-09-07 10:36:00,
2013-09-07 05:41:00,69.6,64.0,29.87,North,10,0.0,0.6,83,0.00,,,0.00,TxWx,2013-09-07 10:41:00,
2013-09-07 05:46:00,69.6,64.0,29.87,NNE,32,0.0,0.6,83,0.00,,,0.00,TxWx,2013-09-07 10:46:00,
2013-09-07 05:51:00,69.6,64.0,29.88,NE,55,0.0,0.6,83,0.00,,,0.00,TxWx,2013-09-07 10:51:00,
2013-09-07 05:56:00,69.5,64.0,29.88,NNE,32,0.0,0.6,82,0.00,,,0.00,TxWx,2013-09-07 10:56:00,
2013-09-07 06:01:00,69.5,63.0,29.88,North,10,0.6,0.6,82,0.00,,,0.00,TxWx,2013-09-07 11:01:00,
2013-09-07 06:06:00,69.5,63.0,29.88,NNE,32,0.0,0.6,83,0.00,,,0.00,TxWx,2013-09-07 11:06:00,
2013-09-07 06:11:00,69.4,64.0,29.88,NNW,347,0.6,1.9,83,0.00,,,0.00,TxWx,2013-09-07 11:11:00,
2013-09-07 06:18:00,69.4,64.0,29.88,NNW,347,0.6,0.6,83,0.00,,,0.00,TxWx,2013-09-07 11:18:00,
2013-09-07 06:23:00,69.3,64.0,29.88,SSE,167,0.6,0.6,83,0.00,,,0.00,TxWx,2013-09-07 11:23:00,
2013-09-07 06:28:00,69.3,64.0,29.88,East,100,0.0,0.6,84,0.00,,,0.00,TxWx,2013-09-07 11:28:00,
2013-09-07 06:33:00,69.3,64.0,29.88,North,10,0.6,1.2,84,0.00,,,0.00,TxWx,2013-09-07 11:33:00,
2013-09-07 06:38:00,69.2,64.0,29.88,North,10,0.0,0.6,84,0.00,,,0.00,TxWx,2013-09-07 11:38:00,
2013-09-07 06:43:00,69.2,64.0,29.88,North,10,0.0,0.6,84,0.00,,,0.00,TxWx,2013-09-07 11:43:00,
2013-09-07 06:48:00,69.1,64.0,29.88,NW,325,0.6,1.2,84,0.00,,,0.00,TxWx,2013-09-07 11:48:00,
2013-09-07 06:53:00,69.1,64.0,29.88,NNE,32,0.0,0.6,84,0.00,,,0.00,TxWx,2013-09-07 11:53:00,
2013-09-07 06:58:00,69.0,64.0,29.88,South,190,0.0,1.2,84,0.00,,,0.00,TxWx,2013-09-07 11:58:00,
2013-09-07 07:03:00,69.0,64.0,29.88,NE,55,0.6,1.2,85,0.00,,,0.00,TxWx,2013-09-07 12:03:00,
2013-09-07 07:08:00,68.8,64.0,29.88,SW,235,0.6,1.2,85,0.00,,,0.00,TxWx,2013-09-07 12:08:00,
2013-09-07 07:13:00,68.8,64.0,29.88,NW,325,0.6,3.1,85,0.00,,,0.00,TxWx,2013-09-07 12:13:00,
2013-09-07 07:18:00,68.8,64.0,29.88,NE,55,0.6,0.6,85,0.00,,,0.00,TxWx,2013-09-07 12:18:00,
2013-09-07 07:23:00,68.8,64.0,29.88,SSE,167,0.6,0.6,85,0.00,,,0.00,TxWx,2013-09-07 12:23:00,
2013-09-07 07:28:00,68.9,64.0,29.88,WSW,257,1.2,2.5,85,0.00,,,0.00,TxWx,2013-09-07 12:28:00,
2013-09-07 07:33:00,69.0,64.0,29.88,WSW,257,0.6,0.6,85,0.00,,,0.00,TxWx,2013-09-07 12:33:00,
2013-09-07 07:38:00,69.1,64.0,29.88,NE,55,0.0,1.9,85,0.00,,,0.00,TxWx,2013-09-07 12:38:00,
2013-09-07 07:43:00,69.2,64.0,29.88,North,10,0.0,0.6,85,0.00,,,0.00,TxWx,2013-09-07 12:43:00,
2013-09-07 07:48:00,69.3,64.0,29.89,NNW,347,0.6,1.2,85,0.00,,,0.00,TxWx,2013-09-07 12:48:00,
2013-09-07 07:53:00,69.3,64.0,29.89,NE,55,0.0,0.6,85,0.00,,,0.00,TxWx,2013-09-07 12:53:00,
2013-09-07 07:58:00,69.4,64.0,29.89,North,10,0.6,0.6,85,0.00,,,0.00,TxWx,2013-09-07 12:58:00,
2013-09-07 08:03:00,69.6,65.0,29.89,NNW,347,0.0,1.2,85,0.00,,,0.00,TxWx,2013-09-07 13:03:00,
2013-09-07 08:08:00,69.6,65.0,29.89,NNW,347,0.6,0.6,85,0.00,,,0.00,TxWx,2013-09-07 13:08:00,
2013-09-07 08:13:00,69.8,65.0,29.89,WSW,257,1.2,1.2,85,0.00,,,0.00,TxWx,2013-09-07 13:13:00,
2013-09-07 08:18:00,70.0,65.0,29.88,East,100,0.6,1.9,85,0.00,,,0.00,TxWx,2013-09-07 13:18:00,
2013-09-07 08:23:00,70.2,65.0,29.88,WNW,302,0.6,1.9,85,0.00,,,0.00,TxWx,2013-09-07 13:23:00,
2013-09-07 08:28:00,70.5,66.0,29.88,South,190,1.2,3.1,85,0.00,,,0.00,TxWx,2013-09-07 13:28:00,
2013-09-07 08:33:00,70.9,66.0,29.88,SSW,212,2.5,3.1,83,0.00,,,0.00,TxWx,2013-09-07 13:33:00,
2013-09-07 08:38:00,71.3,65.0,29.88,WSW,257,1.9,2.5,82,0.00,,,0.00,TxWx,2013-09-07 13:38:00,
2013-09-07 08:44:00,71.8,66.0,29.88,WSW,257,1.9,8.0,81,0.00,,,0.00,TxWx,2013-09-07 13:44:00,
2013-09-07 08:49:00,72.1,65.0,29.88,SSW,212,0.6,5.0,80,0.00,,,0.00,TxWx,2013-09-07 13:49:00,
2013-09-07 08:54:00,72.3,65.0,29.88,West,280,1.9,5.0,80,0.00,,,0.00,TxWx,2013-09-07 13:54:00,
2013-09-07 08:59:00,72.5,66.0,29.88,South,190,3.1,3.7,79,0.00,,,0.00,TxWx,2013-09-07 13:59:00,
2013-09-07 09:04:00,72.8,66.0,29.88,SSW,212,1.9,3.1,78,0.00,,,0.00,TxWx,2013-09-07 14:04:00,
2013-09-07 09:09:00,72.9,66.0,29.88,WSW,257,0.6,1.9,78,0.00,,,0.00,TxWx,2013-09-07 14:09:00,
2013-09-07 09:14:00,73.1,66.0,29.88,SSE,167,0.6,1.2,78,0.00,,,0.00,TxWx,2013-09-07 14:14:00,
2013-09-07 09:19:00,73.3,66.0,29.88,SW,235,1.2,1.9,78,0.00,,,0.00,TxWx,2013-09-07 14:19:00,
2013-09-07 09:24:00,73.4,66.0,29.88,South,190,1.9,3.1,78,0.00,,,0.00,TxWx,2013-09-07 14:24:00,
2013-09-07 09:29:00,73.7,66.0,29.88,WNW,302,0.0,1.9,77,0.00,,,0.00,TxWx,2013-09-07 14:29:00,
2013-09-07 09:34:00,74.0,66.0,29.88,WSW,257,1.2,2.5,78,0.00,,,0.00,TxWx,2013-09-07 14:34:00,
2013-09-07 09:39:00,74.4,66.0,29.88,South,190,1.2,3.7,77,0.00,,,0.00,TxWx,2013-09-07 14:39:00,
2013-09-07 09:44:00,74.8,67.0,29.88,West,280,1.9,3.7,77,0.00,,,0.00,TxWx,2013-09-07 14:44:00,
2013-09-07 09:49:00,75.2,67.0,29.88,SW,235,1.2,1.9,76,0.00,,,0.00,TxWx,2013-09-07 14:49:00,
2013-09-07 09:54:00,75.7,67.0,29.88,West,280,2.5,3.1,74,0.00,,,0.00,TxWx,2013-09-07 14:54:00,
2013-09-07 09:59:00,76.2,67.0,29.88,West,280,1.2,1.9,75,0.00,,,0.00,TxWx,2013-09-07 14:59:00,
2013-09-07 10:04:00,76.7,68.0,29.88,West,280,1.9,4.3,74,0.00,,,0.00,TxWx,2013-09-07 15:04:00,
2013-09-07 10:09:00,77.1,67.0,29.88,South,190,2.5,3.1,72,0.00,,,0.00,TxWx,2013-09-07 15:09:00,
2013-09-07 10:14:00,77.7,68.0,29.88,WSW,257,1.2,3.1,71,0.00,,,0.00,TxWx,2013-09-07 15:14:00,
2013-09-07 10:19:00,78.2,67.0,29.88,West,280,3.1,8.0,70,0.00,,,0.00,TxWx,2013-09-07 15:19:00,
2013-09-07 10:24:00,78.7,68.0,29.88,NNW,347,0.6,1.2,70,0.00,,,0.00,TxWx,2013-09-07 15:24:00,
2013-09-07 10:30:00,79.3,68.0,29.88,WSW,257,1.9,2.5,69,0.00,,,0.00,TxWx,2013-09-07 15:30:00,
2013-09-07 10:35:00,79.8,69.0,29.88,South,190,1.2,1.9,69,0.00,,,0.00,TxWx,2013-09-07 15:35:00,
2013-09-07 10:40:00,80.4,68.0,29.88,SW,235,2.5,5.0,66,0.00,,,0.00,TxWx,2013-09-07 15:40:00,
2013-09-07 10:45:00,80.9,68.0,29.87,North,10,1.2,5.6,66,0.00,,,0.00,TxWx,2013-09-07 15:45:00,
2013-09-07 10:50:00,81.5,69.0,29.87,NNW,347,1.2,2.5,66,0.00,,,0.00,TxWx,2013-09-07 15:50:00,
2013-09-07 10:55:00,82.1,67.0,29.87,NW,325,1.2,3.7,62,0.00,,,0.00,TxWx,2013-09-07 15:55:00,
2013-09-07 11:00:00,82.7,68.0,29.87,South,190,1.2,3.1,62,0.00,,,0.00,TxWx,2013-09-07 16:00:00,
2013-09-07 11:05:00,83.2,69.0,29.87,SW,235,3.7,3.7,63,0.00,,,0.00,TxWx,2013-09-07 16:05:00,
2013-09-07 11:10:00,83.5,69.0,29.87,West,280,3.7,5.0,62,0.00,,,0.00,TxWx,2013-09-07 16:10:00,
2013-09-07 11:15:00,83.9,68.0,29.86,West,280,3.1,6.2,59,0.00,,,0.00,TxWx,2013-09-07 16:15:00,
2013-09-07 11:20:00,84.4,68.0,29.87,WSW,257,3.7,3.7,59,0.00,,,0.00,TxWx,2013-09-07 16:20:00,
2013-09-07 11:25:00,84.8,69.0,29.87,ESE,122,1.2,4.3,59,0.00,,,0.00,TxWx,2013-09-07 16:25:00,
2013-09-07 11:30:00,85.3,69.0,29.86,SW,235,2.5,3.7,59,0.00,,,0.00,TxWx,2013-09-07 16:30:00,
2013-09-07 11:35:00,85.7,69.0,29.86,SSE,167,0.6,4.3,58,0.00,,,0.00,TxWx,2013-09-07 16:35:00,
2013-09-07 11:40:00,86.1,69.0,29.86,SSW,212,1.2,1.9,58,0.00,,,0.00,TxWx,2013-09-07 16:40:00,
2013-09-07 11:45:00,86.5,70.0,29.86,SW,235,1.2,1.9,57,0.00,,,0.00,TxWx,2013-09-07 16:45:00,
2013-09-07 11:50:00,86.7,69.0,29.86,SW,235,2.5,3.7,56,0.00,,,0.00,TxWx,2013-09-07 16:50:00,
2013-09-07 11:55:00,87.1,69.0,29.86,South,190,1.2,1.9,55,0.00,,,0.00,TxWx,2013-09-07 16:55:00,
2013-09-07 12:00:00,87.3,68.0,29.85,SSE,167,1.2,5.0,54,0.00,,,0.00,TxWx,2013-09-07 17:00:00,
2013-09-07 12:05:00,87.7,70.0,29.85,West,280,1.9,3.1,55,0.00,,,0.00,TxWx,2013-09-07 17:05:00,
2013-09-07 12:10:00,87.9,69.0,29.85,SSE,167,1.9,3.1,54,0.00,,,0.00,TxWx,2013-09-07 17:10:00,
2013-09-07 12:15:00,88.1,69.0,29.85,West,280,6.8,9.3,54,0.00,,,0.00,TxWx,2013-09-07 17:15:00,
2013-09-07 12:20:00,88.4,68.0,29.84,WSW,257,1.9,1.9,53,0.00,,,0.00,TxWx,2013-09-07 17:20:00,
2013-09-07 12:25:00,88.8,70.0,29.84,SE,145,2.5,4.3,54,0.00,,,0.00,TxWx,2013-09-07 17:25:00,
2013-09-07 12:30:00,89.0,69.0,29.84,SW,235,1.9,3.1,52,0.00,,,0.00,TxWx,2013-09-07 17:30:00,
2013-09-07 12:36:00,89.2,69.0,29.84,SSE,167,2.5,4.3,53,0.00,,,0.00,TxWx,2013-09-07 17:36:00,
2013-09-07 12:41:00,89.4,69.0,29.84,WNW,302,4.3,6.8,52,0.00,,,0.00,TxWx,2013-09-07 17:41:00,
2013-09-07 12:46:00,89.6,70.0,29.84,SW,235,3.7,6.8,52,0.00,,,0.00,TxWx,2013-09-07 17:46:00,
2013-09-07 12:51:00,89.9,69.0,29.84,SSE,167,2.5,4.3,51,0.00,,,0.00,TxWx,2013-09-07 17:51:00,
2013-09-07 12:56:00,89.9,69.0,29.84,SW,235,3.1,6.2,51,0.00,,,0.00,TxWx,2013-09-07 17:56:00,
2013-09-07 13:01:00,90.1,68.0,29.84,NNW,347,2.5,4.3,50,0.00,,,0.00,TxWx,2013-09-07 18:01:00,
2013-09-07 13:06:00,90.2,68.0,29.83,SW,235,3.7,3.7,50,0.00,,,0.00,TxWx,2013-09-07 18:06:00,
2013-09-07 13:11:00,90.5,70.0,29.84,WNW,302,3.1,3.1,51,0.00,,,0.00,TxWx,2013-09-07 18:11:00,
2013-09-07 13:16:00,90.3,68.0,29.83,West,280,4.3,5.0,49,0.00,,,0.00,TxWx,2013-09-07 18:16:00,
2013-09-07 13:21:00,90.7,70.0,29.83,South,190,0.6,3.1,51,0.00,,,0.00,TxWx,2013-09-07 18:21:00,
2013-09-07 13:26:00,91.0,70.0,29.83,SW,235,2.5,4.3,50,0.00,,,0.00,TxWx,2013-09-07 18:26:00,
2013-09-07 13:31:00,91.0,70.0,29.83,SSW,212,2.5,6.2,50,0.00,,,0.00,TxWx,2013-09-07 18:31:00,
2013-09-07 13:36:00,91.1,69.0,29.83,SSE,167,1.2,2.5,49,0.00,,,0.00,TxWx,2013-09-07 18:36:00,
2013-09-07 13:41:00,91.3,69.0,29.83,SW,235,2.5,6.8,49,0.00,,,0.00,TxWx,2013-09-07 18:41:00,
2013-09-07 13:46:00,91.4,70.0,29.83,North,10,0.0,1.9,50,0.00,,,0.00,TxWx,2013-09-07 18:46:00,
2013-09-07 13:51:00,91.4,69.0,29.83,South,190,2.5,4.3,49,0.00,,,0.00,TxWx,2013-09-07 18:51:00,
2013-09-07 13:56:00,91.7,70.0,29.83,ESE,122,6.8,6.8,50,0.00,,,0.00,TxWx,2013-09-07 18:56:00,
2013-09-07 14:01:00,91.6,70.0,29.83,East,100,3.1,5.6,49,0.00,,,0.00,TxWx,2013-09-07 19:01:00,
2013-09-07 14:06:00,91.8,69.0,29.82,South,190,3.7,5.6,48,0.00,,,0.00,TxWx,2013-09-07 19:06:00,
2013-09-07 14:11:00,91.8,70.0,29.82,West,280,1.9,3.1,49,0.00,,,0.00,TxWx,2013-09-07 19:11:00,
2013-09-07 14:16:00,92.0,70.0,29.81,NE,55,0.6,3.7,49,0.00,,,0.00,TxWx,2013-09-07 19:16:00,
2013-09-07 14:21:00,92.0,69.0,29.81,NW,325,1.9,3.7,48,0.00,,,0.00,TxWx,2013-09-07 19:21:00,
2013-09-07 14:26:00,92.2,70.0,29.81,SW,235,1.9,3.7,49,0.00,,,0.00,TxWx,2013-09-07 19:26:00,
2013-09-07 14:32:00,92.4,69.0,29.81,SSW,212,1.9,4.3,48,0.00,,,0.00,TxWx,2013-09-07 19:32:00,
2013-09-07 14:37:00,92.5,70.0,29.81,SSW,212,2.5,6.8,48,0.00,,,0.00,TxWx,2013-09-07 19:37:00,
2013-09-07 14:42:00,92.5,70.0,29.81,South,190,8.0,8.0,47,0.00,,,0.00,TxWx,2013-09-07 19:42:00,
2013-09-07 14:47:00,92.6,69.0,29.81,WNW,302,2.5,3.7,47,0.00,,,0.00,TxWx,2013-09-07 19:47:00,
2013-09-07 14:52:00,92.7,69.0,29.81,WSW,257,0.6,3.7,47,0.00,,,0.00,TxWx,2013-09-07 19:52:00,
2013-09-07 14:57:00,92.9,70.0,29.81,South,190,1.9,4.3,48,0.00,,,0.00,TxWx,2013-09-07 19:57:00,
2013-09-07 15:02:00,93.0,70.0,29.81,SSW,212,2.5,4.3,48,0.00,,,0.00,TxWx,2013-09-07 20:02:00,
2013-09-07 15:07:00,92.9,69.0,29.81,WSW,257,3.7,4.3,47,0.00,,,0.00,TxWx,2013-09-07 20:07:00,
2013-09-07 15:12:00,93.1,70.0,29.81,SW,235,3.1,8.0,47,0.00,,,0.00,TxWx,2013-09-07 20:12:00,
2013-09-07 15:17:00,93.1,68.0,29.82,SW,235,2.5,6.2,45,0.00,,,0.00,TxWx,2013-09-07 20:17:00,
2013-09-07 15:22:00,93.2,69.0,29.81,WSW,257,8.0,8.0,47,0.00,,,0.00,TxWx,2013-09-07 20:22:00,
2013-09-07 15:27:00,93.3,69.0,29.81,SSW,212,5.0,8.0,46,0.00,,,0.00,TxWx,2013-09-07 20:27:00,
2013-09-07 15:32:00,93.3,68.0,29.81,SW,235,3.7,5.0,45,0.00,,,0.00,TxWx,2013-09-07 20:32:00,
2013-09-07 15:37:00,93.2,68.0,29.81,SSE,167,4.3,5.6,45,0.00,,,0.00,TxWx,2013-09-07 20:37:00,
2013-09-07 15:42:00,93.4,69.0,29.81,WNW,302,1.9,4.3,46,0.00,,,0.00,TxWx,2013-09-07 20:42:00,
2013-09-07 15:47:00,93.4,68.0,29.81,WSW,257,1.2,4.3,45,0.00,,,0.00,TxWx,2013-09-07 20:47:00,
2013-09-07 15:52:00,93.4,68.0,29.80,West,280,1.9,4.3,45,0.00,,,0.00,TxWx,2013-09-07 20:52:00,
2013-09-07 15:57:00,93.4,68.0,29.81,SSW,212,4.3,4.3,45,0.00,,,0.00,TxWx,2013-09-07 20:57:00,
2013-09-07 16:02:00,93.5,69.0,29.80,NE,55,1.2,6.2,44,0.00,,,0.00,TxWx,2013-09-07 21:02:00,
2013-09-07 16:07:00,93.6,70.0,29.81,West,280,1.2,4.3,46,0.00,,,0.00,TxWx,2013-09-07 21:07:00,
2013-09-07 16:12:00,93.5,69.0,29.81,WSW,257,2.5,3.1,45,0.00,,,0.00,TxWx,2013-09-07 21:12:00,
2013-09-07 16:17:00,93.6,69.0,29.81,WSW,257,1.9,2.5,45,0.00,,,0.00,TxWx,2013-09-07 21:17:00,
2013-09-07 16:22:00,93.6,69.0,29.81,NE,55,1.2,6.8,44,0.00,,,0.00,TxWx,2013-09-07 21:22:00,
2013-09-07 16:27:00,93.6,69.0,29.81,WSW,257,8.0,10.5,45,0.00,,,0.00,TxWx,2013-09-07 21:27:00,
2013-09-07 16:33:00,93.6,69.0,29.81,SW,235,3.1,7.4,45,0.00,,,0.00,TxWx,2013-09-07 21:33:00,
2013-09-07 16:38:00,93.8,69.0,29.81,South,190,1.9,4.3,45,0.00,,,0.00,TxWx,2013-09-07 21:38:00,
2013-09-07 16:43:00,93.6,70.0,29.81,SW,235,2.5,3.1,46,0.00,,,0.00,TxWx,2013-09-07 21:43:00,
2013-09-07 16:48:00,93.5,70.0,29.81,NNE,32,1.2,5.0,46,0.00,,,0.00,TxWx,2013-09-07 21:48:00,
2013-09-07 16:53:00,93.6,70.0,29.81,SSE,167,4.3,5.6,46,0.00,,,0.00,TxWx,2013-09-07 21:53:00,
2013-09-07 16:58:00,93.6,69.0,29.81,WSW,257,1.9,5.0,45,0.00,,,0.00,TxWx,2013-09-07 21:58:00,
2013-09-07 17:03:00,93.5,69.0,29.81,South,190,3.7,5.0,45,0.00,,,0.00,TxWx,2013-09-07 22:03:00,
2013-09-07 17:08:00,93.6,70.0,29.81,SSE,167,1.9,3.7,46,0.00,,,0.00,TxWx,2013-09-07 22:08:00,
2013-09-07 17:13:00,93.6,70.0,29.81,WSW,257,2.5,3.7,46,0.00,,,0.00,TxWx,2013-09-07 22:13:00,
2013-09-07 17:18:00,93.5,70.0,29.81,South,190,1.2,4.3,46,0.00,,,0.00,TxWx,2013-09-07 22:18:00,
2013-09-07 17:23:00,93.6,69.0,29.81,WSW,257,3.1,3.1,45,0.00,,,0.00,TxWx,2013-09-07 22:23:00,
2013-09-07 17:28:00,93.5,69.0,29.81,SSE,167,1.9,5.0,45,0.00,,,0.00,TxWx,2013-09-07 22:28:00,
2013-09-07 17:33:00,93.6,70.0,29.81,SW,235,0.6,2.5,47,0.00,,,0.00,TxWx,2013-09-07 22:33:00,
2013-09-07 17:38:00,93.5,70.0,29.81,North,10,0.6,2.5,46,0.00,,,0.00,TxWx,2013-09-07 22:38:00,
2013-09-07 17:43:00,93.3,68.0,29.81,SW,235,2.5,2.5,45,0.00,,,0.00,TxWx,2013-09-07 22:43:00,
2013-09-07 17:48:00,93.4,68.0,29.82,SW,235,1.9,5.0,45,0.00,,,0.00,TxWx,2013-09-07 22:48:00,
2013-09-07 17:53:00,93.3,69.0,29.82,West,280,2.5,5.6,46,0.00,,,0.00,TxWx,2013-09-07 22:53:00,
2013-09-07 17:59:00,93.2,69.0,29.82,WSW,257,1.2,4.3,47,0.00,,,0.00,TxWx,2013-09-07 22:59:00,
2013-09-07 18:04:00,92.6,69.0,29.82,West,280,1.9,3.7,47,0.00,,,0.00,TxWx,2013-09-07 23:04:00,
2013-09-07 18:09:00,92.3,69.0,29.82,SSW,212,1.9,2.5,47,0.00,,,0.00,TxWx,2013-09-07 23:09:00,
2013-09-07 18:14:00,92.1,69.0,29.81,SE,145,2.5,2.5,48,0.00,,,0.00,TxWx,2013-09-07 23:14:00,
2013-09-07 18:19:00,91.7,69.0,29.81,West,280,3.1,3.7,47,0.00,,,0.00,TxWx,2013-09-07 23:19:00,
2013-09-07 18:24:00,91.4,68.0,29.82,SW,235,2.5,3.1,48,0.00,,,0.00,TxWx,2013-09-07 23:24:00,
2013-09-07 18:29:00,91.3,68.0,29.81,SSE,167,1.2,3.7,48,0.00,,,0.00,TxWx,2013-09-07 23:29:00,
2013-09-07 18:34:00,91.0,69.0,29.82,South,190,0.6,1.2,49,0.00,,,0.00,TxWx,2013-09-07 23:34:00,
2013-09-07 18:39:00,90.6,69.0,29.82,SW,235,1.2,1.9,50,0.00,,,0.00,TxWx,2013-09-07 23:39:00,
2013-09-07 18:44:00,90.4,68.0,29.82,WNW,302,1.2,1.9,50,0.00,,,0.00,TxWx,2013-09-07 23:44:00,
2013-09-07 18:49:00,90.0,69.0,29.82,NW,325,0.6,5.6,51,0.00,,,0.00,TxWx,2013-09-07 23:49:00,
2013-09-07 18:54:00,89.7,69.0,29.82,SSW,212,0.6,1.9,51,0.00,,,0.00,TxWx,2013-09-07 23:54:00,
2013-09-07 18:59:00,89.5,69.0,29.82,NNW,347,0.0,1.9,51,0.00,,,0.00,TxWx,2013-09-07 23:59:00,
2013-09-07 19:04:00,89.2,69.0,29.82,NNE,32,0.0,1.2,52,0.00,,,0.00,TxWx,2013-09-08 00:04:00,
2013-09-07 19:09:00,89.0,69.0,29.82,ESE,122,0.6,1.2,52,0.00,,,0.00,TxWx,2013-09-08 00:09:00,
2013-09-07 19:14:00,88.9,69.0,29.82,NW,325,1.2,1.9,52,0.00,,,0.00,TxWx,2013-09-08 00:14:00,
2013-09-07 19:19:00,88.6,69.0,29.82,North,10,0.6,1.2,52,0.00,,,0.00,TxWx,2013-09-08 00:19:00,
2013-09-07 19:24:00,88.4,68.0,29.82,NNE,32,0.6,0.6,52,0.00,,,0.00,TxWx,2013-09-08 00:24:00,
2013-09-07 19:29:00,88.2,68.0,29.82,NNE,32,0.6,0.6,53,0.00,,,0.00,TxWx,2013-09-08 00:29:00,
2013-09-07 19:34:00,87.9,69.0,29.82,ENE,77,0.6,1.2,54,0.00,,,0.00,TxWx,2013-09-08 00:34:00,
2013-09-07 19:39:00,87.5,69.0,29.82,West,280,0.6,1.9,55,0.00,,,0.00,TxWx,2013-09-08 00:39:00,
2013-09-07 19:45:00,87.3,69.0,29.82,North,10,1.2,1.2,56,0.00,,,0.00,TxWx,2013-09-08 00:45:00,
2013-09-07 19:50:00,87.0,69.0,29.82,North,10,0.0,3.1,56,0.00,,,0.00,TxWx,2013-09-08 00:50:00,
2013-09-07 19:55:00,86.8,70.0,29.82,ESE,122,1.9,1.9,57,0.00,,,0.00,TxWx,2013-09-08 00:55:00,
2013-09-07 20:00:00,86.6,70.0,29.83,North,10,0.6,0.6,58,0.00,,,0.00,TxWx,2013-09-08 01:00:00,
2013-09-07 20:05:00,86.4,69.0,29.82,NNE,32,0.0,0.6,58,0.00,,,0.00,TxWx,2013-09-08 01:05:00,
2013-09-07 20:10:00,86.2,69.0,29.83,SE,145,0.6,0.6,58,0.00,,,0.00,TxWx,2013-09-08 01:10:00,
2013-09-07 20:15:00,86.0,70.0,29.82,East,100,0.6,1.2,59,0.00,,,0.00,TxWx,2013-09-08 01:15:00,
2013-09-07 20:20:00,85.9,70.0,29.82,SSW,212,0.6,1.2,59,0.00,,,0.00,TxWx,2013-09-08 01:20:00,
2013-09-07 20:25:00,85.6,70.0,29.82,NNW,347,0.0,1.2,60,0.00,,,0.00,TxWx,2013-09-08 01:25:00,
2013-09-07 20:30:00,85.4,69.0,29.82,WSW,257,1.2,2.5,60,0.00,,,0.00,TxWx,2013-09-08 01:30:00,
2013-09-07 20:35:00,85.2,69.0,29.82,WSW,257,0.0,1.2,60,0.00,,,0.00,TxWx,2013-09-08 01:35:00,
2013-09-07 20:40:00,84.8,70.0,29.81,WSW,257,2.5,2.5,61,0.00,,,0.00,TxWx,2013-09-08 01:40:00,
2013-09-07 20:45:00,84.5,70.0,29.81,WSW,257,1.9,2.5,62,0.00,,,0.00,TxWx,2013-09-08 01:45:00,
2013-09-07 20:50:00,84.3,70.0,29.81,South,190,1.2,3.7,62,0.00,,,0.00,TxWx,2013-09-08 01:50:00,
2013-09-07 20:55:00,84.1,70.0,29.81,SW,235,1.9,2.5,62,0.00,,,0.00,TxWx,2013-09-08 01:55:00,
2013-09-07 21:00:00,84.0,70.0,29.81,SSW,212,1.9,2.5,62,0.00,,,0.00,TxWx,2013-09-08 02:00:00,
2013-09-07 21:05:00,83.8,70.0,29.81,SSE,167,1.2,5.6,62,0.00,,,0.00,TxWx,2013-09-08 02:05:00,
2013-09-07 21:10:00,83.7,70.0,29.81,ESE,122,1.2,2.5,63,0.00,,,0.00,TxWx,2013-09-08 02:10:00,
2013-09-07 21:15:00,83.5,70.0,29.81,SW,235,1.2,2.5,63,0.00,,,0.00,TxWx,2013-09-08 02:15:00,
2013-09-07 21:20:00,83.4,69.0,29.81,SSW,212,1.9,2.5,63,0.00,,,0.00,TxWx,2013-09-08 02:20:00,
2013-09-07 21:25:00,83.3,69.0,29.81,ENE,77,0.0,5.0,63,0.00,,,0.00,TxWx,2013-09-08 02:25:00,
2013-09-07 21:30:00,83.2,69.0,29.81,SSW,212,1.9,3.7,63,0.00,,,0.00,TxWx,2013-09-08 02:30:00,
2013-09-07 21:35:00,83.1,69.0,29.81,SSW,212,0.6,1.9,63,0.00,,,0.00,TxWx,2013-09-08 02:35:00,
2013-09-07 21:41:00,83.0,69.0,29.81,South,190,1.9,3.1,63,0.00,,,0.00,TxWx,2013-09-08 02:41:00,
2013-09-07 21:46:00,82.9,69.0,29.81,East,100,1.2,3.7,63,0.00,,,0.00,TxWx,2013-09-08 02:46:00,
2013-09-07 21:51:00,82.9,69.0,29.81,WSW,257,0.6,2.5,63,0.00,,,0.00,TxWx,2013-09-08 02:51:00,
2013-09-07 21:56:00,82.8,69.0,29.81,North,10,0.6,1.9,63,0.00,,,0.00,TxWx,2013-09-08 02:56:00,
2013-09-07 22:01:00,82.7,69.0,29.81,NNW,347,0.6,1.2,64,0.00,,,0.00,TxWx,2013-09-08 03:01:00,
2013-09-07 22:06:00,82.6,69.0,29.81,WNW,302,0.6,1.2,64,0.00,,,0.00,TxWx,2013-09-08 03:06:00,
2013-09-07 22:11:00,82.4,68.0,29.82,East,100,0.6,0.6,64,0.00,,,0.00,TxWx,2013-09-08 03:11:00,
2013-09-07 22:16:00,82.2,69.0,29.82,West,280,0.6,1.2,64,0.00,,,0.00,TxWx,2013-09-08 03:16:00,
2013-09-07 22:21:00,82.0,69.0,29.82,SSE,167,0.6,1.2,65,0.00,,,0.00,TxWx,2013-09-08 03:21:00,
2013-09-07 22:26:00,81.9,69.0,29.83,WNW,302,1.9,3.7,64,0.00,,,0.00,TxWx,2013-09-08 03:26:00,
2013-09-07 22:31:00,81.7,69.0,29.83,North,10,0.0,0.6,65,0.00,,,0.00,TxWx,2013-09-08 03:31:00,
2013-09-07 22:36:00,81.5,69.0,29.83,North,10,0.0,0.6,65,0.00,,,0.00,TxWx,2013-09-08 03:36:00,
2013-09-07 22:41:00,81.3,69.0,29.83,East,100,0.6,1.2,66,0.00,,,0.00,TxWx,2013-09-08 03:41:00,
2013-09-07 22:46:00,81.2,69.0,29.83,NNW,347,0.0,0.6,66,0.00,,,0.00,TxWx,2013-09-08 03:46:00,
2013-09-07 22:51:00,81.0,69.0,29.83,East,100,0.6,1.2,67,0.00,,,0.00,TxWx,2013-09-08 03:51:00,
2013-09-07 22:56:00,80.9,69.0,29.83,East,100,0.6,0.6,67,0.00,,,0.00,TxWx,2013-09-08 03:56:00,
2013-09-07 23:01:00,80.8,69.0,29.83,SW,235,1.2,1.2,67,0.00,,,0.00,TxWx,2013-09-08 04:01:00,
2013-09-07 23:03:00,80.8,69.0,29.83,South,190,0.6,1.2,67,0.00,,,0.00,TxWx,2013-09-08 04:03:00,
2013-09-07 23:06:00,80.8,69.0,29.83,WSW,257,3.1,3.7,68,0.00,,,0.00,TxWx,2013-09-08 04:06:00,
2013-09-07 23:07:00,80.8,69.0,29.83,SW,235,1.2,2.5,68,0.00,,,0.00,TxWx,2013-09-08 04:07:00,
2013-09-07 23:11:00,80.8,69.0,29.82,WSW,257,1.2,2.5,67,0.00,,,0.00,TxWx,2013-09-08 04:11:00,
2013-09-07 23:16:00,80.9,69.0,29.83,SSW,212,1.2,2.5,67,0.00,,,0.00,TxWx,2013-09-08 04:16:00,
2013-09-07 23:21:00,81.0,69.0,29.83,ENE,77,0.6,2.5,67,0.00,,,0.00,TxWx,2013-09-08 04:21:00,
2013-09-07 23:27:00,81.0,69.0,29.82,West,280,0.6,3.1,67,0.00,,,0.00,TxWx,2013-09-08 04:27:00,
2013-09-07 23:32:00,81.0,69.0,29.82,SSW,212,1.9,2.5,67,0.00,,,0.00,TxWx,2013-09-08 04:32:00,
2013-09-07 23:37:00,81.0,69.0,29.83,SSE,167,2.5,2.5,67,0.00,,,0.00,TxWx,2013-09-08 04:37:00,
2013-09-07 23:42:00,80.9,69.0,29.82,NNW,347,1.2,3.1,67,0.00,,,0.00,TxWx,2013-09-08 04:42:00,
2013-09-07 23:44:00,80.9,69.0,29.83,SW,235,0.6,1.2,67,0.00,,,0.00,TxWx,2013-09-08 04:44:00,
2013-09-07 23:49:00,80.8,69.0,29.83,SE,145,1.2,1.9,68,0.00,,,0.00,TxWx,2013-09-08 04:49:00,
2013-09-07 23:54:00,80.8,69.0,29.83,NNE,32,0.6,3.1,68,0.00,,,0.00,TxWx,2013-09-08 04:54:00,
2013-09-07 23:59:00,80.7,69.0,29.83,West,280,1.2,2.5,68,0.00,,,0.00,TxWx,2013-09-08 04:59:00,